Weather History for Seattle, WA

Change the Weather History Date:

Sunday, November 4, 2012

  Actual Average Record
Temperature  
Mean Temperature 60 °F 48 °F  
Max Temperature 64 °F 54 °F 74 °F (1949)
Min Temperature 55 °F 42 °F 30 °F (1957)
Degree Days  
Heating Degree Days 5 17  
Month to date heating degree days 34 67  
Since 1 July heating degree days 527 664  
Cooling Degree Days 0 0  
Month to date cooling degree days 0 0  
Year to date cooling degree days 177 189  
Growing Degree Days 10 (Base 50)    
Moisture  
Dew Point 55 °F    
Average Humidity 86    
Maximum Humidity 93    
Minimum Humidity 78    
Precipitation  
Precipitation 0.32 in 0.20 in 1.91 in (2006)
Month to date precipitation 0.94 0.78  
Year to date precipitation 34.07 26.35  
Snow  
Snow 0.00 in - T in (1973)
Month to date snowfall 0.0  
Since 1 July snowfall 0.0  
Snow Depth 0.00 in    
Sea Level Pressure  
Sea Level Pressure 30.24 in    
Wind  
Wind Speed 9 mph (SSE)    
Max Wind Speed 17 mph    
Max Gust Speed 22 mph    
Visibility 6 miles    
Events Rain    
T = Trace of Precipitation, MM = Missing Value Source: NWS Daily Summary

Daily Weather History Graph

Daily Weather History Graph

Search for Another Location

Airport:

Trip Planner

Search our weather history database for the weather conditions in past years. The results will help you decide how hot, cold, wet, or windy it might be!

Date:

Astronomy

Nov. 04, 2012 Rise Set
Actual Time 6:58 AM PST 4:46 PM PST
Civil Twilight 6:25 AM PST 5:19 PM PST
Nautical Twilight 5:49 AM PST 5:55 PM PST
Astronomical Twilight 5:13 AM PST 6:31 PM PST
Moon 9:26 PM PST (11/4) 11:49 AM PST (11/4)
Length of Visible Light 10h 53m
Length of Day
9h 48m
Waning Gibbous, 71% of the Moon is Illuminated
Nov 4
Waning Gibbous
Nov 6
Last Quarter
Nov 13
New
Nov 20
First Quarter
Nov 28
Full

Hourly Weather History & Observations

Time (PST) Temp. Dew Point Humidity Pressure Visibility Wind Dir Wind Speed Gust Speed Precip Events Conditions
12:53 AM 55.0 °F 52.0 °F 89% 30.21 in 10.0 mi SE 3.5 mph - N/A   Overcast
1:53 AM 55.9 °F 53.1 °F 90% 30.20 in 5.0 mi SSE 5.8 mph - 0.00 in Rain Light Rain
1:08 AM 55.4 °F 53.6 °F 94% 30.20 in 2.0 mi SSE 3.5 mph - 0.00 in Rain Light Rain
1:38 AM 55.4 °F 53.6 °F 94% 30.20 in 5.0 mi ESE 3.5 mph - 0.03 in Rain Light Rain
1:53 AM 55.0 °F 53.1 °F 93% 30.22 in 6.0 mi ESE 5.8 mph - 0.03 in Rain Light Rain
2:53 AM 55.0 °F 53.1 °F 93% 30.21 in 7.0 mi East 6.9 mph - 0.01 in   Overcast
3:35 AM 55.4 °F 51.8 °F 88% 30.19 in 2.0 mi SE 9.2 mph - 0.00 in Rain Light Rain
3:53 AM 55.0 °F 52.0 °F 89% 30.21 in 2.0 mi ESE 9.2 mph - 0.01 in Rain Light Rain
4:33 AM 55.4 °F 53.6 °F 94% 30.20 in 1.0 mi ESE 11.5 mph - 0.00 in   Light Drizzle
4:53 AM 55.0 °F 53.1 °F 93% 30.23 in 1.0 mi ESE 8.1 mph - 0.02 in Rain Light Rain
5:53 AM 55.0 °F 53.1 °F 93% 30.23 in 3.0 mi SE 9.2 mph - 0.01 in Rain Light Rain
6:05 AM 55.4 °F 53.6 °F 94% 30.21 in 1.0 mi ESE 15.0 mph - 0.00 in   Overcast
6:32 AM 55.4 °F 53.6 °F 94% 30.20 in 5.0 mi ESE 9.2 mph - 0.00 in   Overcast
6:53 AM 55.9 °F 53.1 °F 90% 30.22 in 10.0 mi SE 9.2 mph - 0.00 in   Overcast
7:53 AM 57.0 °F 53.1 °F 87% 30.23 in 10.0 mi ESE 5.8 mph - N/A   Overcast
8:53 AM 57.0 °F 53.1 °F 87% 30.25 in 10.0 mi SSE 5.8 mph - N/A   Overcast
9:53 AM 57.9 °F 54.0 °F 87% 30.25 in 10.0 mi SE 8.1 mph - 0.00 in   Overcast
10:53 AM 60.1 °F 55.0 °F 83% 30.26 in 10.0 mi SSW 5.8 mph - N/A   Overcast
11:53 AM 61.0 °F 55.9 °F 83% 30.26 in 10.0 mi South 6.9 mph - N/A   Overcast
12:53 PM 62.1 °F 57.0 °F 84% 30.27 in 10.0 mi SSW 5.8 mph - 0.00 in Rain Light Rain
1:53 PM 62.1 °F 55.9 °F 80% 30.27 in 10.0 mi SSW 9.2 mph - 0.00 in   Overcast
2:53 PM 61.0 °F 57.0 °F 87% 30.26 in 10.0 mi SSW 10.4 mph - N/A   Overcast
3:25 PM 62.6 °F 57.2 °F 82% 30.23 in 10.0 mi SSW 13.8 mph - N/A   Mostly Cloudy
3:53 PM 63.0 °F 55.9 °F 78% 30.24 in 10.0 mi South 11.5 mph 20.7 mph N/A   Mostly Cloudy
4:53 PM 64.0 °F 55.0 °F 73% 30.25 in 10.0 mi SSW 13.8 mph - 0.00 in Rain Light Rain
5:53 PM 62.1 °F 55.9 °F 80% 30.27 in 10.0 mi SW 10.4 mph - 0.02 in   Overcast
6:53 PM 61.0 °F 55.9 °F 83% 30.27 in 10.0 mi South 6.9 mph - 0.00 in   Overcast
7:53 PM 61.0 °F 55.9 °F 83% 30.27 in 10.0 mi WNW 9.2 mph - 0.00 in Rain Light Rain
8:36 PM 60.8 °F 57.2 °F 88% 30.25 in 2.5 mi WSW 9.2 mph - 0.05 in Rain Light Rain
8:51 PM 60.8 °F 57.2 °F 88% 30.25 in 2.5 mi SW 11.5 mph - 0.06 in Rain Light Rain
8:53 PM 60.1 °F 57.9 °F 93% 30.27 in 2.5 mi SW 11.5 mph - 0.06 in Rain Light Rain
9:53 PM 60.1 °F 57.0 °F 90% 30.28 in 2.5 mi SW 10.4 mph 18.4 mph 0.02 in Rain Rain
10:04 PM 60.8 °F 57.2 °F 88% 30.26 in 1.5 mi SW 9.2 mph - 0.03 in Rain Rain
10:53 PM 60.1 °F 57.9 °F 93% 30.29 in 1.5 mi SW 10.4 mph - 0.08 in Rain Light Rain